Wind_Speed
82 83 85 86 87 88 90 91 92 93 94 96 97 98 99 100 102 103 105 107 109 110 112 113 113 112 112 110 109 106 104 101 98 96 93 90 87 84 81 77 74 71 68 65 62 60 57 55 52 50 49 47 46 46 46 46 46 46 45 45 44 43 42 41 40 40 40 40 40 41 41 42 43 44 45 45 46 47 48 49 49 50 50 51 51 52
83 85 86 88 89 90 91 93 94 95 96 97 99 100 101 103 105 107 109 110 112 112 112 112 111 110 108 105 102 99 96 93 90 87 84 81 78 75 72 68 65 62 60 57 55 52 50 49 47 46 45 45 45 45 45 45 44 43 42 41 40 39 38 38 38 38 38 39 40 41 42 43 44 45 46 47 48 49 50 50 51 51 51 52 52 52
85 87 88 90 91 92 93 94 96 97 98 99 101 103 104 106 108 110 111 112 112 112 111 109 106 104 101 98 95 91 88 85 81 78 75 72 69 66 63 60 57 55 53 51 49 47 46 45 45 44 44 45 44 44 44 43 41 40 39 38 37 37 36 37 37 38 39 39 41 42 43 44 45 46 47 49 50 51 52 52 53 53 54 54 54 54
87 89 90 91 92 93 94 96 97 99 100 102 104 106 107 109 111 111 111 111 110 108 106 103 100 97 93 90 87 83 79 76 72 69 66 64 61 58 55 53 51 49 47 46 45 45 44 44 44 44 44 44 44 43 41 40 39 37 36 36 35 36 36 36 37 38 39 40 41 42 43 44 45 46 48 49 50 52 53 54 55 55 56 56 56 56
89 90 92 93 94 95 96 97 99 101 103 105 107 109 110 111 111 110 109 107 105 102 99 96 93 89 85 82 78 74 70 67 64 61 58 56 54 51 49 48 46 45 45 44 44 44 44 44 44 44 44 43 42 41 39 38 37 36 35 35 35 36 36 37 38 39 39 40 41 42 43 44 45 46 48 49 51 52 53 55 56 57 57 58 58 58
91 92 93 94 95 97 98 100 102 104 106 108 109 110 110 110 108 107 104 102 99 95 92 88 84 80 76 73 69 65 61 58 56 54 52 50 48 46 45 44 43 43 43 43 44 44 44 44 44 43 42 41 40 38 37 36 35 35 35 35 36 36 37 38 39 39 40 40 41 42 43 44 46 47 48 49 51 52 53 55 56 57 58 59 59 59
93 94 95 96 97 99 100 102 105 107 108 109 110 110 109 107 104 101 98 95 91 88 84 80 75 71 67 63 60 57 54 51 49 48 46 45 44 43 42 42 42 42 43 43 43 44 43 43 42 41 40 39 38 37 36 35 35 35 35 36 37 38 38 39 40 40 41 42 42 43 44 45 46 47 48 49 50 52 53 54 56 57 58 58 59 59
94 95 97 98 99 101 103 106 107 108 109 109 108 106 104 102 99 95 91 86 82 78 75 71 67 63 58 55 52 50 48 46 44 43 43 42 41 41 41 41 41 41 42 42 43 43 42 42 41 39 38 37 36 36 35 35 35 36 36 37 38 39 40 40 41 42 42 43 44 44 45 46 46 47 48 49 50 51 52 53 54 55 56 57 57 58
96 97 99 100 102 104 106 108 109 109 108 106 103 101 98 95 92 88 84 79 73 69 65 62 59 55 52 48 45 44 43 41 41 40 40 40 40 40 40 40 40 40 41 41 41 41 41 40 39 37 36 36 35 35 35 35 36 37 38 39 40 40 41 42 43 43 44 44 45 45 46 46 47 47 48 49 49 50 51 52 52 53 53 54 55 55
98 99 101 103 105 106 107 107 108 107 105 102 99 95 91 86 83 80 76 72 66 61 56 53 50 48 45 43 41 39 39 39 39 39 39 39 39 39 39 38 39 39 39 40 40 40 39 38 37 36 36 35 35 36 36 36 37 38 39 40 41 41 42 43 44 44 45 45 46 46 47 47 48 48 48 49 49 50 50 50 50 50 50 51 52 52
100 102 104 106 107 108 107 106 104 102 99 96 92 89 85 79 74 69 66 63 59 54 50 46 44 42 40 39 38 38 37 38 38 39 39 39 38 38 38 37 38 38 38 38 38 38 38 37 36 36 36 36 36 36 37 38 38 39 40 41 41 42 43 44 45 45 46 47 47 47 48 48 49 49 49 49 49 49 48 48 48 48 48 48 49 49
103 105 106 107 107 107 105 103 100 97 93 88 84 81 78 73 67 62 57 53 50 47 44 41 39 38 37 37 37 37 37 37 38 38 38 38 37 37 37 37 37 37 37 37 37 37 37 37 36 36 36 37 37 37 38 38 39 40 40 41 42 42 43 44 45 46 47 48 48 49 49 49 49 49 49 48 48 47 46 46 45 45 45 45 45 46
106 107 107 107 105 103 100 97 94 90 86 81 76 71 68 65 60 55 50 46 43 41 39 37 37 36 36 36 37 37 37 37 37 37 37 36 35 35 35 36 36 36 36 37 37 37 37 37 37 37 37 38 38 38 38 39 39 39 40 41 42 43 44 45 46 47 48 49 49 49 49 49 49 48 47 46 45 44 44 43 43 42 42 42 42 42
107 107 106 104 101 98 95 91 86 82 78 73 68 64 60 56 52 48 44 42 39 37 36 35 35 35 36 37 37 38 37 37 37 36 35 34 34 34 35 35 35 35 36 36 36 37 37 38 38 38 38 38 38 38 38 38 38 39 40 41 42 43 45 46 47 47 48 49 49 49 49 48 47 46 44 43 42 41 41 40 40 40 39 39 39 40
107 105 103 100 96 92 88 83 79 74 70 66 61 56 52 49 45 42 40 38 37 36 35 34 35 35 36 37 38 38 38 37 36 35 33 32 33 34 35 35 35 34 35 36 36 37 37 38 37 37 37 37 36 36 37 37 38 39 40 41 43 44 45 46 46 47 48 48 48 48 47 45 44 42 41 40 39 38 37 37 37 37 37 37 37 38
104 101 98 94 90 86 81 76 70 66 62 58 54 50 46 43 41 39 38 36 36 35 35 35 35 35 36 36 37 37 38 37 36 34 32 31 32 33 34 35 34 34 35 36 36 37 37 37 37 36 36 35 35 35 36 37 38 39 40 41 43 44 44 45 45 46 47 47 46 45 43 41 39 38 37 36 35 35 35 35 35 35 35 35 35 36
100 96 92 87 83 78 73 68 63 59 55 51 47 44 42 40 38 38 37 36 36 36 35 35 36 35 35 34 35 36 37 37 36 34 32 31 31 32 34 35 34 34 34 35 36 37 36 36 35 35 34 34 34 35 35 36 37 39 40 41 42 42 43 44 45 45 45 45 43 41 39 37 35 34 33 32 32 32 32 33 33 33 33 33 33 33
94 90 85 80 75 70 65 60 56 52 49 46 43 41 39 38 37 37 37 37 37 37 36 36 36 35 35 34 33 34 36 37 36 34 32 31 31 32 33 34 34 34 34 35 36 36 36 35 34 34 33 33 34 34 35 36 37 38 39 40 40 41 42 43 44 44 44 42 39 36 34 32 31 30 30 30 30 31 31 31 31 31 31 31 31 30
88 83 77 71 66 62 58 53 50 47 45 42 40 39 38 38 38 38 38 38 38 37 37 36 36 35 34 33 33 34 35 36 35 34 32 31 30 31 33 34 34 34 35 35 36 36 35 34 34 33 33 33 34 34 35 36 37 38 38 38 39 40 41 42 43 42 40 38 35 32 30 29 29 28 28 29 29 29 29 29 29 29 28 28 28 28
80 75 69 63 58 55 51 49 46 44 42 40 39 38 38 38 38 38 38 38 38 37 37 36 35 34 34 33 33 33 34 35 35 34 33 31 30 31 32 33 34 34 34 35 35 35 35 34 33 33 33 33 34 34 35 36 36 36 37 37 38 39 40 41 40 39 37 34 31 29 28 27 27 27 28 28 28 28 27 27 26 27 27 27 28 28
72 67 62 57 52 48 46 45 43 42 41 40 39 39 39 39 39 39 39 38 37 36 36 35 34 33 33 33 33 33 34 35 35 34 33 31 30 31 32 33 34 34 34 34 35 35 34 34 33 33 33 33 34 34 34 35 35 35 35 36 37 38 38 38 38 36 33 31 29 27 27 27 27 27 28 28 27 27 26 26 26 27 28 29 29 30
64 59 55 51 48 45 43 42 41 41 40 40 40 40 40 40 39 39 38 37 37 36 34 33 33 32 32 32 32 33 34 35 36 35 33 31 30 30 32 33 34 34 34 34 34 34 34 34 33 32 32 33 33 33 34 33 33 33 34 34 35 36 36 36 34 32 30 28 27 26 26 26 27 28 28 28 27 27 27 27 28 29 30 31 32 32
57 53 49 46 44 43 42 41 41 41 41 41 41 41 41 40 40 39 38 37 36 35 34 33 32 31 31 32 32 33 34 35 36 36 34 32 30 30 32 33 34 34 34 34 34 34 34 33 33 32 32 32 33 33 33 32 32 32 32 33 33 34 33 33 31 29 27 26 25 25 26 27 28 28 28 28 28 28 28 29 30 31 32 33 34 35
52 48 45 43 42 42 42 42 42 42 42 42 42 42 41 40 40 39 38 37 35 34 33 32 32 31 31 31 32 33 34 35 36 36 35 33 31 31 32 33 34 34 34 34 34 34 33 33 32 32 32 32 32 32 31 31 30 30 31 31 31 31 30 29 28 27 25 25 25 25 26 27 28 28 28 28 28 29 30 31 32 33 34 35 35 35
47 45 43 42 42 42 42 43 43 43 43 43 43 42 41 41 40 39 38 37 36 35 34 33 32 32 32 32 32 33 34 35 36 36 35 34 32 32 33 33 34 34 34 34 34 34 33 33 32 32 32 31 31 31 30 29 29 29 29 29 28 27 27 26 25 24 23 23 24 24 25 26 27 27 27 28 28 29 30 31 32 33 33 34 34 35
44 43 42 42 43 43 43 44 44 44 44 44 43 43 42 41 40 39 38 37 36 36 35 34 34 33 33 32 33 33 34 35 35 36 35 34 33 33 33 34 35 35 34 34 34 34 33 33 32 32 31 31 30 30 29 28 28 27 27 26 25 25 24 23 22 22 21 21 22 22 23 24 24 25 26 27 28 29 30 30 31 32 33 33 34 34
44 43 43 43 44 44 44 45 45 45 45 44 44 43 42 41 40 39 38 38 37 37 36 36 35 34 34 33 33 34 34 35 35 35 35 35 34 33 34 34 35 35 34 34 34 33 33 33 32 32 31 30 29 28 27 27 26 25 25 24 23 22 21 21 20 20 19 19 20 20 21 22 23 24 25 26 27 28 29 30 31 31 32 32 33 33
44 44 44 45 45 45 45 45 45 45 45 44 44 44 43 42 41 40 39 39 38 38 37 37 36 36 35 35 34 35 35 36 36 36 35 35 34 34 34 35 35 35 34 34 33 33 33 33 32 31 30 29 28 27 26 25 24 23 22 22 21 20 20 19 19 19 19 19 20 20 21 22 23 24 25 26 27 28 29 29 30 30 30 30 30 31
45 45 45 45 46 46 46 45 45 45 44 44 44 43 43 42 41 40 40 39 39 39 38 38 38 37 36 36 35 35 36 37 37 36 35 35 35 34 34 35 35 35 35 33 32 32 33 33 32 31 30 29 27 26 24 23 22 22 21 20 20 19 19 19 19 20 20 21 21 22 22 23 23 24 25 26 27 28 28 29 29 28 28 27 27 27
45 45 46 46 46 46 45 45 45 44 44 44 43 43 42 42 41 41 40 40 39 39 39 38 38 38 37 37 36 36 36 37 37 37 36 35 34 34 34 34 35 35 35 33 32 31 31 32 32 31 30 28 26 24 23 22 21 20 19 19 19 19 20 20 21 21 22 22 23 23 24 24 24 25 26 27 28 29 29 29 29 28 27 26 26 25
45 45 45 45 45 45 45 44 44 43 43 43 42 42 42 41 41 41 40 40 39 39 39 38 38 38 38 38 37 36 36 37 37 37 36 35 34 33 33 34 34 35 35 33 31 29 29 31 31 31 29 27 25 23 22 21 20 19 18 18 19 19 20 21 22 22 23 24 24 25 25 25 26 26 27 28 29 30 30 31 30 30 29 28 27 25
45 45 45 45 44 44 44 43 43 42 42 41 41 41 41 40 40 40 39 39 39 38 38 38 38 38 38 38 37 37 37 37 37 37 36 35 33 33 32 32 33 33 34 33 31 29 28 28 29 30 29 27 24 22 21 19 18 18 17 18 18 19 21 22 22 23 24 25 25 26 26 27 28 28 29 30 31 31 32 32 32 31 30 29 28 26
45 44 44 44 44 43 43 42 42 41 41 40 40 40 39 39 39 38 38 38 38 38 38 38 38 37 37 37 37 37 37 37 37 37 36 34 33 31 31 31 31 31 32 31 30 29 27 27 27 28 28 26 24 22 21 19 18 17 17 17 18 19 21 22 23 24 25 25 26 27 28 28 29 30 31 32 33 33 34 34 33 32 31 30 28 27
44 44 43 43 43 42 42 41 40 40 39 39 38 38 37 37 37 37 37 37 37 37 37 37 37 37 37 36 36 36 36 36 36 36 36 34 33 31 30 29 29 30 30 29 29 28 27 26 26 26 26 25 24 23 21 20 18 17 17 17 18 19 21 22 23 24 25 26 27 28 29 30 30 32 33 34 34 35 35 35 35 34 32 31 29 28
43 43 43 42 42 41 40 40 39 39 38 37 36 36 35 35 35 35 35 36 36 36 36 37 37 37 37 36 36 35 35 35 36 36 35 34 33 31 29 29 28 28 28 28 27 26 26 25 25 25 24 23 23 23 22 20 19 18 18 18 19 20 21 22 23 24 25 26 27 28 29 30 31 32 33 34 35 36 36 36 35 34 33 32 31 30
43 42 42 41 40 40 39 38 37 37 36 35 34 34 34 34 34 34 34 35 35 35 35 36 36 36 36 36 36 35 35 35 35 35 34 34 32 31 29 28 28 27 27 26 26 25 25 24 24 24 23 22 22 22 22 21 20 19 19 19 19 20 22 23 24 25 25 26 27 29 30 31 32 33 34 35 35 35 35 35 34 33 32 32 32 32
42 42 41 40 39 38 37 36 35 34 33 33 32 32 32 32 33 33 33 34 34 34 34 34 35 35 36 36 36 36 35 35 34 34 34 33 32 30 29 27 27 26 26 25 25 24 24 23 23 23 22 21 21 21 21 21 21 20 20 20 21 21 22 23 24 25 26 27 28 30 31 32 33 34 34 34 34 34 33 33 32 32 32 32 32 32
41 40 40 39 38 37 36 34 33 32 31 31 31 31 31 32 32 32 33 33 33 33 33 33 33 34 35 35 36 36 35 35 34 34 33 33 32 30 28 27 25 25 25 25 24 24 23 22 22 21 21 21 20 20 20 20 21 21 20 21 21 22 23 24 25 26 27 28 30 31 32 33 34 34 34 33 33 32 31 30 30 31 31 31 32 31
40 39 38 38 36 35 34 32 31 30 30 29 30 30 30 31 31 31 32 32 32 32 32 32 32 33 34 35 35 36 35 35 35 34 34 33 32 30 28 26 25 24 24 24 24 23 23 22 21 21 20 20 20 20 20 20 20 20 20 20 22 23 24 25 26 27 28 29 31 32 33 34 34 34 33 32 31 30 29 29 29 30 31 31 31 31
38 38 37 36 34 33 31 30 29 28 28 28 29 29 30 30 31 31 31 31 31 31 31 32 32 33 34 35 35 36 36 36 35 35 34 33 32 30 28 26 25 23 23 23 23 23 22 22 21 20 19 19 19 19 20 20 20 20 20 20 21 22 24 26 27 28 29 30 32 33 34 34 34 33 32 31 29 29 29 29 29 30 31 31 32 32
37 36 34 33 32 31 29 28 28 27 27 28 29 29 30 30 30 30 30 30 30 31 31 32 32 33 33 34 35 36 36 36 36 35 34 33 32 30 28 26 25 23 22 22 22 22 22 22 21 20 19 18 18 18 18 19 20 20 20 20 20 21 23 25 27 28 30 31 32 33 34 34 33 32 30 29 28 28 29 30 31 31 32 32 33 33
34 33 32 30 29 28 27 27 27 27 27 28 29 29 29 29 29 29 29 29 30 31 31 32 32 32 33 34 35 36 36 36 36 35 35 34 32 31 28 26 25 23 22 21 21 21 21 21 21 20 19 18 17 17 17 18 19 19 20 20 21 21 22 24 26 28 30 31 33 34 34 33 32 30 28 27 27 28 30 31 32 32 33 33 33 34
32 30 29 28 27 26 26 26 26 27 28 29 29 29 29 29 29 29 29 29 30 31 31 32 32 32 32 33 33 34 35 35 36 35 35 34 33 31 29 27 25 23 21 21 20 20 20 21 21 20 19 18 17 17 16 17 18 19 20 21 22 22 23 24 26 28 30 32 33 34 33 32 30 28 27 27 28 29 31 31 32 32 33 33 34 34
29 28 27 26 25 25 25 26 27 28 28 29 29 29 29 29 29 29 29 29 30 31 31 32 32 32 32 32 32 33 33 34 34 34 34 34 33 31 29 27 25 23 21 20 20 19 19 20 20 20 19 18 18 17 16 16 17 18 19 21 22 23 24 25 27 28 30 32 33 33 32 30 29 28 27 28 29 30 30 31 31 32 33 33 33 32
27 26 25 25 25 25 26 27 28 28 29 29 29 29 29 29 29 29 30 30 30 31 31 32 32 32 32 32 31 31 31 32 32 32 33 32 32 31 30 28 25 23 21 20 20 19 19 19 19 19 19 18 18 17 17 16 16 17 19 20 22 23 25 26 28 29 30 31 31 31 30 28 27 27 27 28 28 29 29 30 31 32 32 32 30 28
26 25 25 25 25 26 27 28 28 29 29 29 29 30 30 30 30 30 30 31 31 31 31 32 32 32 32 31 31 31 30 30 30 30 30 30 30 30 29 28 26 24 22 20 20 19 19 19 19 18 18 18 18 17 17 17 16 17 18 20 21 23 25 26 28 29 30 30 30 29 27 26 26 27 27 27 27 27 29 30 31 31 30 28 26 23
26 26 26 26 26 27 28 28 29 29 30 30 30 30 30 30 30 31 31 31 31 31 31 31 32 32 32 31 31 30 30 29 29 28 28 28 28 28 27 27 26 25 23 21 20 19 19 19 18 18 17 17 17 17 17 16 17 17 18 19 21 23 25 26 28 29 30 29 28 27 26 25 25 26 26 26 26 27 28 30 30 30 28 25 22 20
27 27 27 27 28 28 29 29 30 30 30 30 30 31 31 31 31 31 31 31 31 31 31 31 31 31 31 31 31 31 30 29 28 28 27 26 26 25 25 25 25 24 23 22 20 20 19 19 18 17 17 16 16 15 15 15 16 16 17 19 21 22 24 26 28 29 29 28 27 26 26 26 25 25 25 25 25 26 28 29 29 27 25 22 20 19
28 28 28 28 29 29 30 30 30 30 31 31 31 31 31 31 31 31 31 31 31 31 31 31 30 30 30 30 30 30 30 29 28 27 27 25 24 23 23 23 23 22 22 21 20 19 19 19 18 17 16 15 15 14 14 14 14 15 16 18 20 22 24 25 27 27 27 27 26 26 26 26 26 26 25 25 25 26 27 27 27 25 22 20 20 20
29 29 29 30 30 30 30 31 31 31 31 31 31 31 31 31 31 31 31 31 31 30 30 30 30 30 30 30 30 30 29 29 28 27 26 25 24 22 22 21 21 20 20 19 19 19 19 19 19 18 16 14 13 13 12 12 12 13 15 17 20 22 24 25 26 26 26 26 25 26 26 26 26 26 26 25 24 25 25 25 24 22 21 20 21 22
31 31 31 31 31 31 31 31 31 31 31 31 31 31 31 31 31 31 30 30 30 30 30 30 30 30 30 30 29 29 29 29 28 27 25 24 23 22 21 20 19 19 18 18 17 18 18 18 19 18 16 14 12 12 12 11 11 12 14 17 19 22 23 24 25 25 25 25 25 25 25 25 26 25 25 24 24 23 23 22 21 20 20 21 22 22
Wind_Direction
303 303 303 303 303 303 303 303 303 303 303 303 302 302 302 302 302 301 301 301 300 300 299 299 299 298 297 297 296 296 295 295 294 294 293 293 292 292 291 291 291 290 290 289 288 287 286 285 284 283 283 282 281 281 280 279 278 277 277 276 275 275 274 274 273 273 273 273 273 273 273 273 273 274 273 273 273 273 273 273 273 273 273 273 273 274
304 304 303 303 304 304 304 304 303 303 303 303 303 303 302 302 302 301 301 301 300 300 300 299 299 298 298 297 296 296 295 295 294 294 293 293 292 292 291 291 291 290 289 288 287 287 286 285 285 284 284 284 283 282 281 280 279 278 276 276 275 275 274 275 275 275 276 277 277 277 278 278 278 277 277 276 275 274 274 273 273 272 272 272 272 272
304 304 304 304 304 304 304 304 304 304 304 303 303 303 302 302 302 302 301 301 301 300 300 299 299 298 298 297 297 296 296 295 294 294 293 293 292 292 292 291 291 290 289 288 287 287 287 287 287 286 286 285 284 283 281 280 278 277 276 275 275 276 276 277 278 279 280 281 281 281 281 281 280 279 278 278 276 276 275 274 273 272 271 271 271 271
305 305 304 305 305 305 304 304 304 304 304 303 303 303 303 302 302 302 301 301 301 300 300 299 299 298 298 297 297 296 296 295 294 294 293 293 292 292 292 291 290 290 289 289 288 289 289 289 288 288 287 286 285 283 281 279 277 276 276 276 276 277 279 280 281 282 282 282 281 281 280 279 278 277 276 276 275 275 274 273 273 272 271 271 270 270
305 305 305 305 305 305 305 305 304 304 304 303 303 303 303 303 302 302 302 302 301 301 300 300 299 299 298 297 297 296 296 295 294 293 293 293 292 292 291 291 290 290 290 290 290 290 290 290 290 289 287 286 284 281 279 277 276 276 276 277 278 280 281 282 282 282 281 280 279 277 276 275 274 273 273 272 272 272 272 272 272 271 271 271 271 270
306 306 305 305 305 305 305 305 304 304 304 304 303 303 303 303 303 303 302 302 301 301 300 300 299 299 298 298 297 296 295 295 294 293 292 292 292 292 291 291 290 291 291 291 291 291 291 290 290 288 286 284 282 279 278 276 276 277 278 280 281 282 283 283 283 282 280 279 277 276 275 274 273 272 271 271 271 271 271 271 271 271 271 271 271 271
306 306 306 306 305 305 305 305 304 304 304 304 304 304 304 304 303 303 302 302 302 301 301 300 299 299 298 297 297 296 295 294 293 292 292 292 291 291 291 291 291 291 291 291 291 291 291 290 289 287 285 282 280 278 277 277 277 279 281 283 284 285 285 285 284 282 281 280 278 277 277 276 275 274 274 273 273 272 272 272 272 272 272 272 272 272
306 306 306 306 306 305 305 305 305 305 305 304 304 304 304 304 304 303 303 302 302 301 301 300 300 299 298 297 296 295 294 293 292 292 291 291 291 290 291 291 291 291 291 291 291 291 291 290 288 286 283 280 278 277 277 278 280 282 284 286 287 287 287 286 285 284 282 282 281 281 280 280 280 279 278 278 277 276 275 275 275 274 274 274 274 274
306 306 306 306 306 306 306 306 305 305 305 305 305 305 305 304 304 304 303 303 302 301 301 300 299 299 298 297 295 294 294 293 292 291 291 290 290 290 291 291 291 291 292 292 292 292 291 289 287 285 282 280 279 279 280 281 284 286 288 289 289 288 288 287 286 286 285 285 285 285 285 285 284 284 283 282 281 280 280 279 279 279 278 278 277 277
306 306 306 306 306 306 306 306 306 306 306 306 306 305 305 304 304 304 303 303 302 302 301 300 299 298 297 296 295 294 293 293 292 291 291 291 291 291 291 291 292 292 292 292 292 292 291 289 286 284 282 281 280 281 283 285 288 290 290 291 290 289 289 289 289 289 289 290 290 290 290 289 288 287 286 285 284 283 283 282 282 282 282 281 280 279
307 307 307 307 307 307 307 307 307 307 307 306 306 306 305 305 304 304 304 303 303 302 302 301 299 298 297 296 295 294 294 293 292 291 291 291 291 292 292 292 292 293 293 293 292 292 290 288 286 284 283 283 283 285 287 289 291 292 292 291 291 291 291 292 292 293 293 293 293 293 292 292 291 289 288 287 286 285 284 284 284 284 284 283 282 280
307 307 308 308 308 308 308 308 308 307 307 307 306 306 306 305 305 305 305 304 303 302 302 301 300 299 297 296 295 294 294 293 292 291 291 291 292 292 293 293 293 293 293 293 292 291 290 288 286 285 285 286 287 289 291 292 293 293 292 292 292 293 294 295 295 296 296 296 295 294 294 293 291 290 289 288 287 286 285 284 284 284 283 282 281 279
308 308 308 308 309 308 308 308 308 308 307 307 307 306 306 306 306 306 306 305 304 303 302 301 300 299 298 297 296 295 294 292 291 291 291 291 292 292 292 293 293 293 292 292 291 290 289 288 287 287 288 289 291 293 294 294 294 293 294 294 295 296 297 297 297 297 297 296 296 295 294 293 292 290 289 288 286 285 284 284 283 283 282 281 280 279
309 309 309 309 309 309 309 308 308 308 308 307 307 307 307 306 307 307 307 306 305 304 303 301 300 299 298 298 297 295 294 292 291 290 290 291 292 292 292 292 292 292 292 291 290 289 289 288 288 289 290 292 294 295 295 295 295 295 296 296 297 297 298 297 297 297 297 296 296 295 294 293 292 290 289 287 286 285 284 284 283 283 282 281 280 279
309 310 310 310 310 309 309 309 309 308 308 307 307 308 308 308 308 307 307 306 305 304 303 301 300 299 299 298 297 295 293 292 291 290 290 291 292 292 292 292 292 292 292 291 290 289 289 289 290 291 293 294 295 296 295 295 296 296 297 297 298 297 297 297 297 297 297 297 296 295 294 293 292 290 288 287 286 285 285 284 284 283 283 282 281 280
310 310 310 310 310 309 309 309 309 308 308 308 308 308 309 308 308 307 307 306 305 304 303 301 300 299 299 298 296 295 293 291 290 290 290 291 291 292 292 292 292 292 291 291 290 290 290 291 292 294 295 296 296 296 295 296 296 297 297 297 297 297 297 298 298 298 298 298 297 296 294 293 291 290 289 288 287 287 286 285 285 284 283 282 281 280
311 310 310 310 310 310 309 309 309 308 308 308 308 309 309 308 308 307 306 306 305 304 303 301 300 300 298 297 295 293 292 291 290 290 290 290 291 291 292 292 292 292 291 290 290 290 291 292 294 295 296 297 296 296 296 296 296 297 297 297 297 298 298 299 300 300 300 299 298 296 294 292 291 290 289 289 288 288 287 286 285 284 283 283 282 282
311 311 311 310 310 310 309 309 308 308 308 308 309 309 309 308 308 307 306 306 305 304 303 302 301 300 299 296 294 291 290 290 290 290 290 290 290 291 291 291 291 291 291 290 290 291 292 294 296 297 297 297 296 296 296 296 297 297 297 298 299 300 300 301 302 302 301 300 298 296 294 292 291 291 290 290 290 289 289 288 287 286 286 286 286 286
311 311 310 310 310 310 309 309 308 308 308 308 309 309 308 308 307 307 306 306 305 304 303 302 301 300 299 297 294 292 290 289 289 289 289 289 290 290 290 290 290 291 291 291 292 293 294 296 297 298 297 297 296 296 296 297 297 298 299 299 301 302 303 304 304 304 302 300 298 295 293 291 291 291 291 292 292 292 292 292 291 291 291 292 292 292
311 311 310 310 310 309 309 308 308 308 308 308 308 308 308 307 307 307 306 305 305 304 303 302 301 300 298 297 294 292 290 289 289 289 289 289 290 290 290 290 290 291 291 292 293 294 296 297 297 298 297 297 296 296 297 298 299 299 300 301 303 304 306 306 306 305 303 300 297 294 292 290 291 292 294 295 296 296 296 296 296 296 296 296 296 296
311 310 310 309 309 309 308 308 308 308 308 308 308 308 308 307 307 306 306 305 304 303 302 301 301 299 298 296 294 293 291 290 289 288 288 289 290 291 291 290 290 291 292 292 294 295 296 297 297 297 297 296 296 297 298 299 300 301 302 304 305 307 308 308 308 306 304 300 297 293 291 291 293 295 297 299 299 299 299 299 298 298 298 298 298 298
310 310 309 309 309 308 308 307 307 307 308 308 308 308 308 308 307 306 305 304 303 302 301 301 300 299 298 297 295 294 292 291 290 289 289 289 290 291 291 291 291 291 292 292 293 294 295 296 296 296 296 296 297 298 299 300 301 302 304 306 308 309 310 311 310 307 304 300 296 294 293 293 296 298 301 301 301 300 299 299 298 297 297 297 297 296
310 309 309 308 308 308 307 307 307 307 307 308 308 308 308 308 307 306 305 304 303 302 301 300 300 299 298 297 296 295 293 291 290 290 290 290 291 291 291 290 290 291 291 292 292 293 294 295 296 296 296 297 298 299 300 300 301 303 306 308 310 312 313 313 312 309 305 300 297 295 294 296 298 301 302 302 301 300 298 297 297 296 295 295 295 295
309 309 308 308 308 308 307 307 307 307 307 308 308 308 308 308 307 307 306 305 303 302 301 300 300 299 298 298 297 296 294 292 290 290 290 291 291 292 291 290 290 290 291 291 292 293 294 295 295 296 297 298 299 300 300 301 303 305 308 310 313 315 316 315 314 310 306 301 297 295 296 298 299 301 302 301 300 298 297 296 295 294 294 294 293 293
309 309 309 308 308 308 308 307 307 307 308 308 308 308 308 308 307 307 306 305 304 303 302 301 301 300 299 299 298 296 294 292 291 290 291 291 291 292 292 291 290 290 291 291 292 293 294 295 295 297 297 298 299 300 300 301 304 306 309 312 314 317 318 318 316 312 308 303 300 298 299 300 301 302 302 301 299 298 296 295 294 293 293 292 292 292
310 309 309 308 308 308 308 308 308 308 308 308 308 308 308 308 307 307 306 306 305 304 303 302 301 301 300 299 299 297 295 293 291 290 291 291 292 292 292 291 291 291 291 291 292 293 293 294 295 297 298 299 299 300 300 302 304 307 310 313 316 318 320 320 318 315 312 308 306 304 304 304 304 304 303 301 300 299 297 296 295 294 293 292 292 291
310 310 309 309 309 308 308 308 308 308 308 308 308 308 308 308 307 307 306 305 305 304 303 303 302 301 300 300 300 299 297 294 292 291 290 291 292 292 292 291 291 291 291 291 292 292 293 294 295 296 298 298 299 299 300 302 304 307 310 313 316 318 319 319 318 317 315 313 311 309 308 306 305 304 303 302 301 300 299 298 297 296 295 294 293 291
310 310 309 309 309 308 308 308 308 308 308 308 308 308 308 307 307 306 306 305 305 304 304 303 303 302 302 302 301 301 299 296 293 291 291 292 293 293 292 291 290 290 290 291 291 291 291 292 294 295 297 298 298 299 300 302 304 307 310 312 314 315 316 316 316 315 314 313 311 310 308 307 305 304 303 302 302 301 301 301 300 300 299 297 295 292
310 310 309 309 309 308 308 308 308 308 308 308 308 308 307 307 307 306 306 305 305 305 305 304 304 303 303 302 302 302 301 298 295 293 292 293 294 294 293 292 290 290 289 290 290 290 290 291 292 294 296 297 297 297 298 301 304 306 309 310 311 312 312 311 312 312 312 312 311 310 309 308 307 306 305 305 305 305 305 305 305 304 303 302 300 296
310 310 309 309 308 308 308 308 308 308 308 308 308 307 307 307 307 306 306 305 305 305 305 305 305 304 304 303 303 303 302 300 297 295 295 295 295 294 293 292 291 290 289 289 288 288 289 290 291 293 295 295 296 296 297 299 302 304 306 307 308 308 308 309 310 311 312 312 312 311 310 310 309 308 308 308 308 309 309 310 310 310 310 309 307 304
310 309 309 308 308 308 308 308 308 308 308 308 307 307 307 307 306 306 306 306 306 306 306 306 306 305 305 305 304 304 303 301 299 297 297 297 297 295 294 293 291 290 288 288 287 287 287 288 290 292 293 294 294 294 295 297 299 301 303 304 305 305 306 308 310 311 312 313 313 313 312 311 311 310 310 310 311 312 313 313 313 313 313 314 313 311
309 309 308 308 307 307 308 308 308 308 308 307 307 307 306 306 306 306 306 306 306 306 306 306 306 306 306 306 306 305 304 302 300 299 299 299 298 297 295 293 291 289 288 287 286 285 285 286 288 290 292 293 292 292 293 294 296 298 299 300 301 303 304 307 309 311 313 313 313 313 313 313 312 312 312 312 313 313 313 313 313 313 313 314 314 314
309 308 308 307 307 307 307 307 307 307 307 307 306 306 306 306 306 306 306 307 307 307 307 307 307 307 306 306 306 306 305 304 302 301 300 300 299 298 296 293 291 289 287 286 285 284 284 284 286 288 290 291 291 291 291 293 294 295 296 297 298 300 303 306 308 311 312 313 313 313 313 313 313 313 313 313 313 313 312 311 310 310 310 311 312 313
308 308 307 307 307 307 307 307 307 307 306 306 306 306 306 306 306 307 307 307 308 308 308 308 308 308 308 307 307 307 307 306 304 303 302 302 301 300 297 295 291 289 286 285 284 283 283 283 284 286 288 288 289 290 290 291 292 293 294 295 296 298 301 304 308 310 312 313 313 313 313 313 312 312 312 312 312 312 310 309 307 307 307 308 310 310
308 308 307 307 307 307 307 307 306 306 306 305 305 305 306 306 307 307 307 308 308 309 309 309 309 309 309 309 309 309 309 308 306 305 304 304 303 302 300 297 293 289 286 284 282 281 280 281 282 283 284 285 286 287 288 290 291 292 293 294 296 298 301 305 308 310 312 313 313 313 312 312 312 312 312 312 311 310 309 307 305 305 305 307 307 308
308 308 307 307 307 307 307 306 306 306 305 305 305 306 306 307 307 308 308 309 309 310 310 310 310 310 310 310 310 310 310 310 308 307 306 306 305 304 302 299 294 290 286 283 280 278 278 279 280 281 281 281 281 282 285 287 289 291 293 294 296 300 303 306 309 311 312 313 313 312 312 312 311 311 311 311 311 309 308 306 305 305 305 306 307 307
309 308 308 308 307 307 307 306 306 306 305 305 306 306 306 307 308 309 309 310 310 311 311 311 312 312 312 311 311 311 311 311 310 309 309 307 306 305 303 300 296 291 287 283 279 277 276 277 278 279 279 277 277 278 280 284 287 290 293 295 298 301 304 307 310 312 313 313 313 312 312 311 311 311 311 311 310 309 307 306 305 305 306 307 308 308
310 309 309 308 308 307 307 307 306 306 306 306 306 307 307 308 308 309 309 310 310 311 312 313 313 313 313 313 313 312 312 312 312 311 310 309 308 306 305 301 297 292 288 284 280 277 275 276 276 276 275 274 274 275 277 280 284 288 292 296 299 302 305 308 310 311 311 312 312 312 312 312 312 312 312 311 309 307 305 305 305 305 307 308 308 309
311 310 309 309 309 308 308 307 307 307 307 307 307 307 308 308 309 309 310 311 311 312 313 314 314 315 315 315 314 314 314 314 314 313 312 311 310 308 306 303 299 294 289 285 281 278 277 276 275 274 272 270 270 273 276 279 282 286 291 296 300 303 305 307 308 309 310 310 311 311 312 312 312 312 312 310 308 306 304 303 304 305 306 307 308 309
312 311 310 310 310 309 309 309 308 308 308 308 308 308 309 309 310 310 311 312 312 313 314 315 316 316 316 316 316 315 315 315 315 314 314 313 311 310 307 304 300 295 290 285 282 280 278 277 275 272 269 267 267 269 273 277 282 286 291 296 299 302 303 305 306 307 308 309 310 311 312 313 313 313 312 310 307 304 303 303 304 305 306 307 308 309
313 312 312 312 311 311 311 311 310 310 310 310 309 309 309 310 310 311 312 313 314 315 316 316 317 317 318 317 317 316 316 316 315 315 315 314 313 311 309 306 302 296 291 287 284 281 280 279 277 273 268 265 263 265 270 274 280 285 291 295 299 301 302 303 304 305 307 308 310 311 312 313 313 313 311 309 305 303 302 303 304 305 306 307 308 309
315 315 314 314 314 313 313 313 313 312 312 311 311 311 311 311 312 313 313 314 315 315 316 317 317 317 317 317 317 317 316 316 316 315 315 314 313 312 310 307 303 298 293 289 285 283 282 281 279 275 269 264 262 263 267 272 278 284 290 295 298 301 302 303 304 305 306 308 310 312 313 314 314 313 310 307 304 302 302 302 303 305 306 308 309 309
318 318 317 317 317 317 316 316 315 314 314 313 313 313 313 313 314 314 315 315 316 316 316 316 317 317 317 316 316 316 316 316 316 315 315 314 313 312 311 308 304 299 294 290 287 285 283 282 281 278 272 266 263 262 265 271 278 285 291 295 299 301 303 303 303 305 307 309 311 313 314 315 315 313 310 307 305 303 302 303 304 305 307 309 309 309
322 322 321 321 320 320 319 318 317 316 315 315 314 314 315 315 316 316 316 316 316 316 316 316 316 316 316 316 315 315 315 315 315 315 314 314 314 313 311 309 305 301 297 293 290 287 285 285 283 280 275 269 265 263 266 271 278 285 291 296 299 301 303 304 304 306 308 310 313 315 316 317 316 315 313 311 308 306 305 305 306 308 310 311 310 309
327 326 326 325 323 322 320 319 318 317 317 316 316 316 316 316 317 317 317 317 316 316 316 316 316 316 316 315 315 315 314 314 314 314 314 314 314 313 311 309 307 303 299 296 293 291 289 288 285 281 276 271 268 266 267 272 279 286 292 296 299 301 303 304 306 308 310 313 316 318 319 319 319 319 318 316 313 311 310 310 311 313 313 313 313 312
331 330 329 327 325 323 321 320 319 318 318 317 317 317 317 317 317 317 317 316 316 316 316 316 316 316 316 315 315 315 314 314 313 313 313 313 313 312 311 310 308 305 302 299 296 294 293 291 288 283 277 272 269 268 270 275 281 287 292 296 298 300 302 304 306 310 313 316 319 321 321 321 321 321 321 320 318 316 316 316 316 317 317 317 316 314
333 332 330 328 325 323 322 321 320 319 318 318 318 318 317 317 317 316 316 316 316 316 316 316 316 316 316 316 315 315 315 314 313 313 312 312 312 312 311 309 308 306 305 303 301 299 298 296 292 287 279 272 268 267 271 275 282 287 292 295 297 299 301 304 308 312 317 320 322 323 322 321 322 322 322 321 321 321 320 320 320 320 320 319 318 316
333 331 329 327 325 323 321 320 320 319 319 318 318 317 317 316 316 316 316 316 316 316 316 317 317 317 316 316 316 316 316 315 315 314 313 312 312 311 310 309 307 306 306 305 305 303 303 300 297 291 282 274 268 266 269 274 280 286 290 293 296 299 303 307 312 316 320 322 323 323 322 322 322 322 322 323 324 325 325 323 322 321 321 320 319 318
331 329 327 325 324 322 321 320 320 319 319 318 317 317 316 316 315 316 316 316 316 317 317 317 317 317 317 317 317 317 317 316 316 315 315 314 313 312 310 308 307 307 307 307 307 306 306 304 301 295 286 277 269 266 267 271 277 283 289 293 297 301 306 311 316 320 323 324 324 323 323 323 323 323 324 326 329 330 328 324 322 320 321 320 320 319
328 327 325 324 323 322 321 320 319 319 318 317 317 316 315 315 315 315 316 316 317 317 317 317 317 317 317 317 317 318 317 317 317 317 316 316 315 313 311 309 308 308 308 309 309 309 309 308 305 300 291 281 272 268 267 269 275 283 290 296 301 306 311 316 320 323 325 325 324 324 324 325 326 327 329 331 334 333 329 324 321 320 320 321 321 321
326 325 324 323 322 321 320 320 319 318 318 317 316 316 315 315 315 315 316 316 317 317 317 318 318 318 318 318 318 318 318 318 318 318 318 318 317 315 313 311 310 310 310 310 310 310 310 310 309 306 299 290 279 273 273 274 279 288 296 302 307 311 316 320 323 325 326 326 326 326 327 329 331 333 335 337 337 334 330 325 322 321 321 321 322 323
Height
5547 5543 5539 5536 5534 5530 5526 5522 5520 5517 5513 5508 5504 5501 5499 5495 5490 5486 5482 5479 5475 5470 5466 5462 5458 5453 5449 5445 5441 5436 5432 5428 5424 5421 5418 5415 5412 5410 5408 5407 5405 5404 5402 5400 5399 5398 5397 5396 5395 5394 5393 5393 5392 5391 5390 5390 5389 5389 5388 5388 5387 5387 5387 5387 5387 5387 5387 5386 5386 5385 5385 5385 5384 5384 5383 5382 5381 5380 5380 5379 5378 5377 5376 5375 5374 5373
5541 5537 5533 5530 5527 5524 5520 5515 5511 5509 5505 5501 5497 5493 5489 5486 5482 5477 5473 5469 5465 5460 5455 5452 5447 5442 5438 5434 5430 5426 5423 5419 5415 5412 5409 5407 5405 5403 5401 5400 5398 5397 5395 5394 5393 5392 5391 5391 5390 5389 5388 5387 5387 5386 5385 5385 5384 5384 5383 5383 5383 5383 5383 5383 5383 5383 5382 5382 5381 5381 5380 5380 5379 5378 5378 5377 5376 5375 5374 5373 5373 5372 5371 5370 5369 5368
5535 5531 5526 5523 5520 5517 5514 5509 5504 5500 5496 5493 5489 5485 5480 5477 5473 5468 5464 5460 5455 5450 5445 5440 5436 5432 5428 5424 5420 5417 5414 5410 5407 5404 5401 5400 5398 5396 5395 5394 5393 5391 5390 5389 5388 5387 5387 5386 5385 5384 5383 5382 5381 5381 5380 5380 5379 5379 5379 5379 5379 5379 5379 5379 5379 5379 5379 5378 5377 5377 5376 5375 5374 5373 5372 5371 5370 5370 5368 5367 5366 5366 5365 5365 5364 5363
5528 5525 5520 5516 5513 5510 5506 5502 5498 5493 5488 5485 5480 5477 5472 5468 5463 5459 5454 5450 5445 5440 5435 5430 5426 5422 5419 5415 5411 5408 5406 5403 5400 5397 5395 5393 5392 5391 5390 5389 5387 5386 5385 5384 5384 5383 5382 5381 5380 5380 5379 5378 5377 5376 5376 5375 5375 5375 5375 5375 5375 5376 5376 5375 5375 5375 5375 5374 5373 5373 5372 5371 5370 5369 5367 5366 5365 5364 5363 5362 5360 5360 5359 5358 5358 5357
5521 5518 5514 5510 5506 5502 5498 5494 5490 5486 5481 5476 5472 5468 5464 5460 5454 5449 5444 5439 5435 5430 5426 5421 5417 5413 5410 5406 5404 5401 5399 5396 5394 5391 5390 5388 5387 5386 5385 5384 5383 5382 5381 5380 5380 5379 5378 5377 5376 5375 5374 5373 5373 5372 5372 5372 5371 5372 5372 5372 5372 5372 5372 5372 5372 5372 5371 5370 5369 5368 5367 5366 5365 5364 5363 5361 5360 5359 5357 5356 5355 5354 5353 5352 5351 5351
5514 5510 5507 5503 5499 5495 5491 5487 5482 5478 5473 5468 5462 5458 5455 5451 5446 5440 5435 5430 5425 5420 5416 5413 5409 5405 5402 5400 5397 5395 5393 5391 5389 5386 5385 5384 5383 5382 5381 5380 5379 5378 5377 5377 5376 5375 5374 5373 5372 5371 5370 5369 5369 5368 5368 5368 5368 5368 5369 5369 5369 5369 5369 5368 5368 5367 5366 5365 5364 5363 5362 5361 5360 5359 5357 5356 5355 5354 5352 5351 5350 5348 5347 5346 5345 5345
5506 5503 5499 5496 5492 5488 5483 5478 5474 5470 5465 5460 5454 5448 5444 5440 5436 5431 5427 5422 5417 5412 5408 5404 5401 5399 5396 5394 5391 5389 5387 5386 5384 5383 5381 5380 5379 5379 5378 5377 5376 5375 5374 5373 5372 5371 5370 5369 5368 5367 5366 5366 5365 5365 5365 5365 5365 5365 5365 5365 5365 5365 5365 5364 5363 5362 5361 5360 5359 5358 5357 5355 5355 5353 5352 5351 5350 5349 5347 5346 5345 5344 5343 5342 5341 5340
5500 5496 5491 5488 5485 5481 5476 5470 5464 5460 5457 5452 5446 5440 5435 5430 5426 5421 5417 5414 5410 5406 5402 5398 5395 5392 5390 5389 5387 5385 5383 5382 5380 5379 5378 5377 5376 5375 5375 5374 5373 5372 5371 5370 5369 5368 5366 5365 5364 5363 5363 5362 5362 5362 5362 5362 5362 5362 5362 5362 5361 5360 5360 5359 5358 5356 5355 5355 5354 5353 5351 5350 5350 5348 5347 5346 5345 5344 5342 5341 5340 5339 5338 5337 5336 5335
5493 5490 5485 5480 5476 5473 5469 5463 5455 5449 5445 5441 5437 5432 5428 5424 5419 5413 5408 5405 5403 5400 5397 5394 5390 5388 5386 5384 5383 5381 5380 5378 5377 5376 5375 5374 5373 5373 5372 5371 5370 5369 5368 5367 5365 5364 5363 5362 5361 5360 5360 5359 5359 5359 5359 5359 5359 5359 5359 5358 5357 5356 5355 5353 5352 5351 5350 5350 5349 5347 5346 5345 5344 5343 5341 5340 5339 5338 5337 5336 5335 5334 5333 5332 5331 5330
5485 5481 5478 5474 5468 5463 5459 5455 5449 5442 5435 5431 5427 5422 5418 5415 5413 5409 5404 5399 5396 5394 5391 5389 5387 5385 5382 5380 5379 5378 5377 5375 5374 5373 5372 5371 5370 5370 5369 5368 5367 5366 5365 5364 5362 5361 5360 5359 5358 5357 5356 5356 5356 5356 5356 5356 5356 5355 5355 5353 5352 5351 5350 5349 5347 5346 5345 5344 5343 5342 5341 5340 5338 5337 5336 5334 5333 5332 5331 5330 5329 5329 5328 5327 5326 5325
5477 5473 5469 5465 5460 5454 5448 5444 5439 5434 5429 5424 5419 5414 5408 5405 5404 5403 5400 5395 5391 5389 5387 5385 5383 5381 5380 5378 5376 5375 5374 5373 5371 5370 5369 5368 5367 5367 5366 5365 5364 5363 5362 5360 5359 5358 5356 5355 5355 5354 5354 5353 5353 5353 5353 5353 5352 5351 5350 5349 5348 5346 5345 5344 5343 5341 5340 5339 5338 5336 5335 5334 5333 5331 5330 5329 5328 5327 5326 5325 5324 5323 5322 5321 5320 5320
5470 5465 5461 5456 5450 5445 5440 5434 5429 5424 5420 5416 5413 5408 5403 5398 5395 5395 5394 5391 5388 5385 5384 5381 5380 5378 5377 5375 5373 5372 5371 5370 5369 5367 5366 5365 5365 5364 5363 5362 5361 5360 5359 5357 5356 5355 5354 5352 5352 5351 5351 5350 5350 5350 5350 5350 5349 5347 5346 5345 5343 5342 5341 5340 5338 5337 5335 5334 5333 5331 5330 5329 5327 5326 5325 5324 5322 5321 5320 5319 5318 5317 5317 5316 5315 5315
5461 5456 5451 5446 5441 5436 5431 5426 5421 5416 5412 5408 5405 5402 5399 5395 5391 5389 5388 5386 5384 5382 5381 5380 5377 5375 5373 5372 5370 5369 5368 5367 5366 5365 5364 5363 5362 5361 5360 5359 5358 5357 5356 5355 5353 5352 5351 5350 5349 5349 5348 5348 5348 5347 5347 5346 5345 5343 5342 5340 5339 5338 5337 5335 5334 5332 5331 5329 5328 5326 5325 5323 5322 5321 5320 5318 5317 5316 5315 5315 5313 5312 5312 5311 5311 5310
5453 5448 5443 5437 5432 5427 5423 5418 5414 5410 5405 5401 5399 5396 5394 5391 5388 5386 5384 5382 5380 5379 5378 5377 5375 5373 5371 5369 5367 5366 5365 5364 5363 5362 5362 5361 5360 5359 5357 5356 5356 5355 5353 5352 5350 5349 5348 5347 5346 5346 5346 5345 5345 5344 5343 5342 5341 5339 5338 5337 5336 5334 5333 5331 5330 5328 5326 5325 5323 5321 5320 5318 5317 5316 5315 5314 5312 5311 5310 5310 5309 5308 5307 5306 5306 5306
5444 5439 5435 5430 5424 5419 5415 5411 5407 5404 5400 5396 5394 5392 5390 5387 5385 5383 5381 5380 5378 5376 5375 5374 5373 5371 5369 5367 5365 5363 5361 5360 5360 5360 5360 5359 5358 5356 5354 5353 5353 5352 5350 5349 5348 5346 5345 5344 5344 5344 5343 5343 5342 5341 5340 5339 5337 5336 5335 5334 5332 5331 5329 5328 5326 5324 5322 5320 5319 5317 5315 5314 5313 5311 5310 5309 5308 5307 5306 5305 5305 5304 5303 5303 5302 5302
5435 5430 5426 5422 5417 5412 5408 5405 5401 5398 5395 5392 5390 5388 5386 5384 5381 5380 5378 5377 5375 5374 5373 5371 5370 5368 5367 5365 5362 5360 5358 5357 5357 5358 5358 5357 5356 5354 5352 5350 5350 5349 5348 5346 5345 5343 5342 5342 5341 5341 5340 5340 5339 5338 5337 5335 5334 5333 5332 5330 5329 5327 5325 5324 5322 5320 5318 5316 5315 5313 5311 5310 5308 5307 5306 5305 5304 5304 5303 5302 5301 5300 5300 5299 5299 5298
5427 5422 5419 5414 5410 5406 5403 5400 5396 5393 5391 5389 5387 5385 5383 5381 5379 5377 5375 5374 5373 5371 5370 5369 5367 5366 5364 5363 5360 5358 5355 5354 5354 5355 5355 5355 5354 5352 5349 5348 5347 5346 5345 5344 5342 5341 5340 5339 5339 5338 5338 5337 5336 5335 5334 5333 5331 5330 5329 5327 5325 5324 5322 5320 5318 5316 5314 5312 5310 5309 5307 5306 5305 5304 5303 5302 5301 5300 5299 5299 5298 5297 5296 5296 5295 5295
5420 5415 5412 5408 5404 5400 5397 5395 5392 5390 5387 5385 5384 5382 5380 5378 5377 5375 5373 5371 5370 5368 5367 5365 5364 5363 5361 5360 5358 5356 5354 5351 5351 5352 5352 5353 5352 5350 5347 5345 5344 5343 5342 5341 5339 5338 5337 5337 5336 5335 5335 5334 5333 5332 5331 5330 5329 5327 5325 5324 5322 5320 5318 5316 5315 5312 5310 5309 5307 5305 5304 5303 5302 5301 5300 5299 5298 5297 5296 5295 5295 5294 5293 5293 5292 5291
5413 5409 5405 5403 5400 5396 5393 5390 5388 5386 5384 5382 5381 5380 5378 5376 5374 5372 5370 5369 5367 5365 5364 5363 5361 5360 5359 5357 5355 5354 5351 5349 5349 5349 5349 5350 5349 5348 5345 5343 5342 5341 5340 5338 5337 5335 5335 5334 5333 5333 5332 5331 5330 5329 5328 5327 5325 5324 5322 5320 5319 5317 5315 5313 5311 5309 5307 5305 5304 5302 5301 5300 5299 5298 5297 5296 5295 5295 5294 5293 5292 5291 5290 5290 5289 5288
5407 5403 5399 5397 5395 5393 5389 5386 5384 5383 5381 5380 5378 5377 5375 5373 5371 5370 5368 5366 5365 5363 5362 5360 5359 5357 5356 5355 5353 5351 5349 5347 5346 5346 5346 5346 5346 5345 5343 5340 5339 5338 5337 5335 5334 5333 5332 5331 5331 5330 5329 5328 5327 5326 5325 5324 5322 5321 5319 5318 5316 5314 5312 5310 5307 5305 5303 5302 5301 5300 5299 5298 5297 5296 5295 5294 5293 5292 5291 5290 5289 5288 5288 5287 5286 5285
5402 5398 5395 5392 5391 5389 5386 5384 5381 5380 5378 5376 5375 5374 5372 5370 5369 5367 5365 5364 5362 5360 5359 5358 5356 5355 5353 5352 5350 5349 5347 5345 5343 5343 5343 5344 5344 5343 5340 5338 5337 5336 5335 5333 5332 5330 5329 5329 5328 5327 5327 5325 5325 5323 5322 5321 5320 5318 5316 5315 5313 5311 5309 5306 5304 5302 5300 5299 5298 5297 5296 5295 5295 5294 5293 5291 5290 5290 5289 5288 5287 5286 5285 5284 5283 5283
5398 5395 5391 5389 5387 5385 5384 5381 5379 5377 5375 5373 5372 5370 5369 5367 5366 5364 5363 5361 5360 5358 5356 5355 5354 5352 5351 5349 5348 5346 5344 5342 5340 5340 5340 5340 5341 5340 5338 5335 5334 5333 5332 5331 5330 5328 5327 5326 5325 5325 5324 5323 5322 5321 5320 5318 5317 5315 5314 5312 5310 5308 5305 5304 5301 5300 5298 5297 5296 5295 5294 5293 5292 5291 5290 5289 5288 5287 5286 5285 5284 5283 5282 5281 5281 5280
5393 5391 5388 5385 5383 5381 5380 5378 5376 5374 5372 5370 5369 5367 5366 5365 5363 5361 5360 5358 5356 5355 5354 5353 5351 5350 5349 5347 5345 5343 5341 5339 5337 5336 5336 5337 5338 5337 5335 5333 5332 5330 5330 5328 5327 5326 5325 5324 5323 5322 5321 5320 5319 5318 5317 5315 5314 5312 5311 5309 5307 5305 5303 5301 5299 5297 5296 5295 5294 5293 5292 5291 5290 5289 5288 5287 5286 5285 5284 5283 5282 5281 5280 5279 5278 5277
5389 5387 5385 5382 5380 5378 5376 5375 5373 5370 5369 5367 5366 5365 5363 5362 5360 5358 5356 5355 5353 5352 5351 5350 5349 5348 5346 5345 5343 5341 5339 5336 5335 5334 5333 5334 5334 5334 5332 5330 5329 5328 5327 5326 5325 5323 5322 5321 5320 5319 5319 5318 5316 5315 5314 5313 5311 5310 5308 5306 5305 5302 5300 5299 5297 5295 5294 5293 5292 5291 5290 5290 5289 5287 5286 5285 5284 5283 5282 5281 5280 5279 5278 5276 5275 5275
5385 5383 5381 5379 5377 5375 5373 5371 5369 5368 5366 5365 5363 5362 5360 5358 5356 5355 5353 5351 5350 5349 5348 5347 5346 5345 5344 5342 5341 5339 5336 5334 5332 5331 5330 5330 5331 5331 5329 5327 5326 5325 5324 5323 5322 5320 5320 5319 5318 5317 5316 5315 5314 5312 5311 5310 5309 5307 5305 5304 5302 5300 5299 5297 5295 5294 5293 5292 5290 5290 5289 5288 5286 5285 5284 5283 5282 5281 5280 5279 5278 5277 5275 5274 5273 5272
5381 5379 5377 5375 5374 5372 5370 5368 5366 5365 5363 5361 5359 5357 5355 5354 5353 5352 5350 5349 5347 5346 5345 5344 5342 5341 5340 5339 5338 5336 5334 5332 5330 5329 5328 5327 5327 5327 5326 5324 5323 5322 5321 5320 5319 5318 5316 5315 5315 5314 5313 5312 5311 5310 5309 5307 5306 5305 5303 5301 5300 5298 5297 5295 5294 5292 5291 5290 5289 5288 5287 5286 5285 5284 5282 5281 5280 5279 5278 5277 5275 5275 5273 5272 5271 5270
5377 5376 5374 5372 5370 5369 5366 5365 5363 5361 5359 5357 5355 5354 5352 5351 5350 5349 5347 5346 5344 5343 5341 5340 5339 5338 5337 5336 5335 5333 5331 5329 5327 5326 5325 5325 5324 5324 5323 5321 5320 5319 5318 5317 5316 5315 5314 5313 5312 5311 5310 5309 5308 5307 5306 5305 5304 5302 5301 5299 5298 5296 5295 5294 5292 5291 5290 5289 5287 5286 5285 5284 5283 5282 5280 5279 5278 5277 5276 5275 5273 5272 5271 5270 5269 5268
5374 5372 5370 5369 5367 5365 5363 5361 5359 5357 5355 5354 5352 5350 5349 5348 5346 5345 5344 5342 5341 5340 5338 5337 5336 5335 5334 5333 5331 5330 5328 5326 5325 5323 5322 5322 5321 5320 5319 5318 5316 5315 5315 5314 5313 5312 5310 5310 5309 5308 5308 5307 5306 5305 5304 5302 5301 5300 5298 5297 5296 5295 5293 5292 5291 5290 5288 5287 5286 5285 5283 5282 5281 5280 5279 5277 5276 5275 5274 5272 5271 5270 5269 5268 5266 5265
5371 5369 5368 5366 5364 5362 5360 5358 5356 5354 5353 5351 5349 5347 5345 5344 5343 5342 5340 5339 5338 5336 5335 5334 5332 5331 5330 5329 5328 5327 5325 5323 5321 5320 5320 5319 5318 5317 5316 5315 5313 5312 5311 5311 5310 5309 5308 5306 5306 5305 5305 5304 5303 5302 5301 5300 5299 5298 5296 5295 5294 5293 5292 5290 5290 5288 5287 5285 5284 5283 5281 5280 5279 5278 5276 5275 5274 5272 5271 5270 5268 5267 5266 5265 5264 5263
5368 5366 5364 5362 5360 5359 5357 5355 5353 5351 5350 5348 5346 5344 5343 5341 5340 5338 5337 5336 5335 5333 5332 5330 5329 5328 5326 5326 5325 5324 5322 5320 5318 5317 5316 5315 5315 5314 5313 5311 5310 5308 5308 5307 5307 5306 5305 5303 5303 5302 5302 5302 5301 5300 5299 5298 5296 5295 5294 5293 5292 5291 5290 5289 5288 5286 5285 5284 5282 5281 5279 5278 5276 5275 5274 5272 5271 5270 5268 5267 5265 5264 5262 5261 5260 5259
5365 5363 5361 5359 5357 5355 5354 5352 5350 5349 5347 5345 5343 5341 5340 5338 5337 5335 5334 5333 5331 5330 5329 5327 5326 5325 5323 5322 5321 5320 5319 5317 5315 5314 5313 5312 5312 5311 5310 5308 5306 5305 5304 5304 5304 5304 5303 5301 5300 5299 5299 5299 5298 5297 5296 5295 5295 5293 5292 5291 5290 5289 5288 5287 5285 5284 5283 5281 5280 5279 5277 5275 5274 5273 5271 5270 5268 5267 5265 5264 5262 5260 5259 5258 5257 5256
5362 5360 5359 5356 5355 5353 5351 5349 5347 5346 5344 5342 5340 5339 5337 5335 5334 5332 5331 5330 5328 5327 5326 5324 5323 5321 5320 5319 5318 5316 5315 5313 5312 5310 5310 5309 5309 5308 5306 5305 5303 5302 5301 5301 5300 5301 5300 5299 5297 5296 5296 5296 5295 5295 5294 5293 5292 5291 5290 5289 5288 5287 5286 5285 5283 5282 5281 5279 5278 5276 5275 5273 5271 5270 5269 5267 5265 5264 5263 5261 5260 5258 5256 5255 5255 5254
5360 5357 5355 5354 5352 5350 5348 5346 5345 5343 5341 5340 5338 5336 5335 5333 5331 5330 5328 5327 5325 5324 5323 5321 5320 5319 5317 5316 5315 5313 5311 5310 5308 5307 5306 5305 5305 5305 5304 5302 5300 5299 5298 5298 5297 5297 5297 5296 5295 5294 5293 5293 5293 5292 5292 5291 5290 5289 5288 5287 5286 5285 5284 5282 5281 5280 5279 5277 5276 5274 5273 5271 5269 5268 5266 5265 5263 5262 5260 5259 5257 5256 5254 5253 5252 5251
5357 5355 5353 5351 5349 5347 5345 5344 5342 5340 5339 5337 5335 5334 5332 5330 5329 5327 5326 5324 5323 5321 5320 5318 5317 5315 5314 5313 5312 5310 5309 5307 5305 5304 5303 5302 5301 5301 5300 5299 5298 5296 5295 5295 5294 5294 5294 5294 5293 5292 5291 5290 5290 5289 5289 5288 5288 5287 5286 5285 5284 5283 5282 5280 5279 5278 5276 5275 5274 5272 5270 5269 5267 5265 5264 5263 5261 5260 5258 5256 5255 5253 5252 5250 5249 5249
5354 5352 5350 5348 5346 5345 5343 5341 5339 5338 5336 5334 5333 5331 5330 5328 5326 5325 5323 5322 5320 5319 5317 5315 5314 5312 5311 5310 5309 5308 5306 5305 5303 5300 5299 5299 5298 5298 5297 5296 5295 5293 5293 5292 5292 5291 5291 5290 5290 5290 5289 5288 5287 5286 5286 5285 5285 5285 5284 5283 5282 5281 5280 5279 5277 5276 5275 5273 5272 5270 5268 5266 5265 5264 5262 5260 5259 5257 5256 5254 5252 5251 5249 5248 5247 5246
5350 5349 5347 5345 5344 5342 5340 5338 5337 5335 5333 5332 5330 5329 5327 5326 5324 5323 5321 5320 5318 5316 5315 5313 5311 5310 5308 5306 5305 5304 5303 5302 5300 5298 5297 5296 5295 5295 5294 5293 5291 5290 5290 5289 5289 5289 5289 5288 5288 5287 5287 5286 5285 5284 5284 5283 5282 5282 5281 5280 5280 5279 5278 5276 5275 5274 5272 5271 5270 5268 5266 5264 5263 5261 5260 5259 5257 5255 5253 5251 5250 5248 5247 5245 5244 5243
5347 5345 5344 5342 5341 5339 5337 5336 5334 5333 5331 5330 5328 5326 5325 5324 5322 5320 5319 5317 5316 5314 5313 5311 5309 5307 5305 5304 5302 5301 5300 5299 5297 5296 5294 5293 5292 5292 5291 5290 5289 5288 5287 5286 5286 5286 5286 5286 5285 5285 5284 5284 5283 5282 5281 5281 5280 5280 5279 5278 5277 5276 5275 5274 5272 5271 5270 5269 5267 5265 5264 5262 5260 5259 5258 5256 5255 5253 5251 5249 5247 5246 5244 5243 5241 5240
5345 5343 5341 5339 5338 5336 5335 5333 5332 5330 5329 5327 5326 5324 5323 5321 5320 5318 5317 5315 5314 5312 5310 5309 5307 5305 5303 5301 5300 5298 5297 5296 5295 5293 5292 5290 5290 5289 5288 5287 5286 5285 5285 5284 5283 5283 5283 5283 5283 5283 5282 5281 5281 5280 5280 5279 5278 5277 5277 5276 5275 5274 5273 5271 5270 5269 5267 5266 5264 5263 5261 5260 5258 5257 5255 5254 5252 5250 5248 5247 5245 5244 5242 5240 5239 5238
5341 5340 5338 5336 5335 5334 5332 5331 5330 5328 5326 5325 5324 5322 5321 5319 5318 5316 5315 5313 5311 5310 5309 5307 5305 5303 5301 5299 5297 5295 5294 5293 5291 5290 5289 5288 5287 5286 5285 5285 5284 5283 5282 5281 5281 5281 5280 5280 5280 5280 5280 5280 5279 5278 5278 5277 5276 5275 5275 5275 5273 5272 5270 5269 5267 5266 5265 5263 5262 5260 5259 5257 5256 5254 5253 5251 5249 5248 5246 5245 5243 5241 5240 5238 5237 5235
5339 5337 5335 5334 5332 5331 5330 5329 5327 5326 5325 5323 5322 5320 5319 5318 5316 5315 5313 5311 5310 5308 5306 5305 5303 5301 5299 5297 5295 5293 5292 5290 5289 5288 5286 5285 5284 5283 5282 5282 5281 5280 5280 5279 5279 5278 5278 5278 5278 5278 5277 5277 5277 5276 5276 5275 5274 5274 5273 5273 5272 5271 5269 5267 5265 5264 5262 5261 5260 5258 5257 5255 5254 5252 5250 5249 5247 5245 5243 5242 5240 5239 5237 5236 5234 5233
5336 5335 5333 5332 5330 5329 5327 5326 5325 5324 5322 5321 5320 5319 5317 5316 5315 5313 5311 5310 5308 5306 5305 5303 5301 5300 5298 5295 5293 5291 5289 5288 5286 5285 5284 5283 5282 5280 5280 5279 5278 5278 5277 5277 5276 5276 5275 5275 5275 5275 5275 5275 5275 5275 5274 5273 5272 5272 5271 5271 5270 5269 5268 5266 5264 5262 5260 5259 5257 5256 5254 5253 5251 5250 5248 5246 5244 5242 5240 5239 5237 5236 5234 5233 5231 5230
5334 5333 5331 5330 5328 5327 5325 5324 5323 5322 5320 5319 5318 5317 5315 5314 5313 5311 5310 5308 5306 5305 5303 5301 5300 5299 5297 5295 5292 5290 5287 5286 5284 5283 5282 5280 5279 5278 5277 5276 5275 5275 5275 5275 5274 5274 5273 5273 5273 5273 5273 5273 5273 5273 5272 5271 5271 5270 5270 5269 5268 5267 5266 5265 5262 5260 5258 5257 5255 5254 5252 5250 5249 5248 5246 5244 5242 5240 5238 5236 5234 5233 5231 5230 5228 5227
5332 5331 5329 5328 5326 5325 5324 5323 5321 5320 5319 5318 5316 5315 5314 5312 5311 5310 5308 5307 5305 5303 5301 5300 5299 5297 5295 5294 5291 5289 5287 5284 5282 5280 5279 5278 5277 5276 5275 5274 5273 5273 5272 5272 5272 5272 5271 5271 5270 5270 5270 5270 5271 5270 5270 5270 5269 5269 5268 5267 5266 5265 5264 5262 5260 5259 5257 5255 5253 5251 5250 5248 5246 5245 5243 5241 5239 5237 5235 5234 5232 5230 5229 5227 5225 5224
5331 5329 5328 5326 5325 5324 5322 5321 5320 5319 5317 5316 5315 5313 5312 5310 5309 5307 5306 5305 5303 5301 5300 5298 5297 5295 5294 5292 5290 5288 5286 5284 5281 5279 5277 5276 5275 5274 5273 5272 5271 5270 5270 5270 5270 5270 5269 5269 5269 5268 5268 5268 5268 5268 5268 5268 5267 5267 5266 5265 5264 5263 5261 5260 5258 5257 5255 5253 5251 5250 5247 5245 5244 5242 5241 5239 5237 5235 5233 5231 5230 5228 5226 5224 5223 5221
5330 5328 5327 5325 5324 5323 5321 5320 5319 5317 5316 5315 5313 5311 5310 5308 5307 5305 5304 5303 5301 5300 5298 5296 5295 5293 5291 5290 5288 5287 5285 5283 5281 5278 5276 5275 5273 5272 5270 5270 5269 5268 5268 5268 5268 5267 5267 5267 5266 5266 5266 5266 5266 5266 5266 5266 5265 5265 5264 5263 5262 5260 5259 5257 5256 5254 5253 5251 5250 5247 5245 5243 5241 5240 5239 5237 5235 5233 5231 5229 5227 5225 5224 5222 5220 5218
5329 5327 5326 5325 5323 5322 5320 5319 5317 5316 5314 5313 5311 5310 5308 5306 5305 5303 5302 5300 5299 5298 5296 5295 5293 5291 5289 5288 5286 5285 5283 5282 5280 5278 5276 5274 5272 5270 5269 5268 5267 5266 5266 5265 5265 5265 5265 5265 5265 5264 5264 5264 5264 5264 5264 5264 5264 5263 5262 5261 5260 5259 5257 5255 5254 5252 5251 5249 5247 5245 5243 5241 5240 5238 5236 5234 5232 5230 5229 5226 5225 5223 5221 5219 5218 5216
5328 5327 5325 5324 5322 5320 5319 5318 5316 5314 5313 5311 5309 5308 5306 5305 5303 5301 5300 5299 5297 5295 5294 5292 5290 5289 5287 5285 5284 5282 5281 5280 5278 5277 5275 5273 5271 5270 5268 5266 5265 5265 5264 5264 5264 5263 5263 5263 5263 5262 5262 5262 5262 5262 5262 5262 5262 5261 5260 5260 5258 5257 5255 5254 5252 5250 5249 5247 5245 5243 5241 5239 5238 5236 5234 5232 5230 5228 5226 5224 5222 5220 5218 5217 5216 5215
5327 5326 5324 5323 5321 5319 5318 5316 5315 5313 5311 5309 5307 5306 5304 5302 5301 5300 5298 5297 5295 5294 5292 5290 5288 5287 5285 5283 5281 5280 5279 5277 5276 5275 5273 5272 5270 5269 5267 5265 5264 5263 5263 5262 5262 5262 5261 5261 5260 5260 5260 5260 5260 5260 5260 5260 5260 5260 5259 5258 5256 5255 5254 5252 5250 5248 5246 5245 5243 5241 5239 5237 5235 5234 5232 5230 5228 5226 5224 5221 5220 5218 5216 5215 5214 5213
5326 5325 5323 5321 5320 5318 5316 5315 5313 5311 5309 5307 5306 5304 5302 5300 5299 5298 5296 5295 5293 5291 5290 5288 5286 5285 5283 5281 5280 5278 5276 5275 5274 5272 5271 5270 5269 5267 5266 5265 5263 5262 5262 5261 5260 5260 5260 5259 5258 5258 5258 5259 5259 5259 5259 5259 5259 5258 5257 5256 5255 5253 5252 5250 5248 5246 5245 5243 5241 5239 5237 5235 5233 5231 5230 5228 5225 5223 5222 5220 5218 5216 5215 5214 5213 5211
5325 5324 5322 5320 5318 5316 5315 5313 5311 5309 5307 5306 5304 5302 5300 5299 5297 5295 5294 5292 5291 5289 5287 5286 5284 5283 5281 5279 5278 5276 5275 5273 5271 5270 5269 5268 5267 5266 5265 5263 5262 5262 5261 5260 5260 5259 5258 5258 5257 5256 5256 5256 5257 5257 5257 5257 5257 5257 5256 5255 5253 5251 5250 5248 5246 5245 5243 5241 5239 5237 5235 5233 5231 5230 5227 5225 5223 5221 5220 5219 5217 5215 5214 5212 5211 5209
5324 5322 5320 5319 5317 5315 5313 5311 5309 5307 5305 5304 5302 5300 5299 5297 5295 5294 5292 5290 5289 5287 5285 5284 5282 5280 5279 5277 5276 5274 5273 5271 5270 5268 5267 5266 5265 5264 5263 5262 5261 5260 5260 5259 5259 5258 5257 5256 5256 5255 5254 5255 5255 5255 5256 5256 5256 5255 5254 5253 5251 5250 5248 5246 5245 5243 5241 5240 5238 5236 5234 5231 5229 5227 5225 5223 5221 5220 5219 5217 5215 5214 5212 5211 5209 5207